Weather History for Bangor, ME

Change the Weather History Date:

Saturday, October 27, 2012

  Actual Average Record
Temperature  
Mean Temperature 53 °F 43 °F  
Max Temperature 67 °F 53 °F 75 °F (1963)
Min Temperature 39 °F 34 °F 22 °F (1998)
Degree Days  
Heating Degree Days 12 22  
Month to date heating degree days 412 464  
Since 1 July heating degree days 645 736  
Cooling Degree Days 0 0  
Month to date cooling degree days 0 0  
Year to date cooling degree days 395 317  
Growing Degree Days 4 (Base 50)    
Moisture  
Dew Point 45 °F    
Average Humidity 74    
Maximum Humidity 100    
Minimum Humidity 48    
Precipitation  
Precipitation 0.00 in 0.13 in 1.41 in (2003)
Month to date precipitation 5.44 3.66  
Year to date precipitation 36.06 33.74  
Snow  
Snow 0.00 in 0.00 in 0.30 in (1997)
Month to date snowfall 0.0 0.1  
Since 1 July snowfall 0.0 0.1  
Since 1 September snowfall 0.0 0.1  
Snow Depth 0.00 in    
Sea Level Pressure  
Sea Level Pressure 30.11 in    
Wind  
Wind Speed 0 mph (North)    
Max Wind Speed 6 mph    
Max Gust Speed 7 mph    
Visibility 4 miles    
Events Fog    
T = Trace of Precipitation, MM = Missing Value Source: NWS Daily Summary

Daily Weather History Graph

Daily Weather History Graph

Search for Another Location

Airport:

Trip Planner

Search our weather history database for the weather conditions in past years. The results will help you decide how hot, cold, wet, or windy it might be!

Date:

Astronomy

Oct. 27, 2012 Rise Set
Actual Time 7:07 AM EDT 5:30 PM EDT
Civil Twilight 6:36 AM EDT 6:00 PM EDT
Nautical Twilight 6:02 AM EDT 6:34 PM EDT
Astronomical Twilight 5:28 AM EDT 7:08 PM EDT
Moon 4:17 PM EDT (10/27) 4:55 AM EDT (10/27)
Length of Visible Light 11h 23m
Length of Day
10h 23m
Waxing Gibbous, 96% of the Moon is Illuminated
Oct 27
Waxing Gibbous
Oct 29
Full
Nov 6
Last Quarter
Nov 13
New
Nov 20
First Quarter

Hourly Weather History & Observations

Time (EDT) Temp. Windchill Dew Point Humidity Pressure Visibility Wind Dir Wind Speed Gust Speed Precip Events Conditions
12:10 AM 46.4 °F - 46.4 °F 100% 30.13 in 0.2 mi Calm Calm - N/A Fog Fog
12:53 AM 46.0 °F - 46.0 °F 100% 30.13 in 0.2 mi Calm Calm - N/A Fog Fog
1:53 AM 45.0 °F - 45.0 °F 100% 30.13 in 0.2 mi Calm Calm - N/A Fog Fog
2:53 AM 44.1 °F - 44.1 °F 100% 30.12 in 0.2 mi Calm Calm - N/A Fog Fog
3:38 AM 42.8 °F - 42.8 °F 100% 30.12 in 0.2 mi Calm Calm - N/A Fog Fog
3:53 AM 42.1 °F - 42.1 °F 100% 30.12 in 0.2 mi Calm Calm - N/A   Mostly Cloudy
4:53 AM 42.1 °F - 41.0 °F 96% 30.12 in 0.2 mi Calm Calm - N/A   Mostly Cloudy
5:45 AM 42.8 °F - 42.8 °F 100% 30.11 in 0.2 mi Calm Calm - N/A Fog Fog
5:53 AM 42.1 °F - 42.1 °F 100% 30.11 in 0.2 mi Calm Calm - N/A Fog Fog
6:13 AM 42.8 °F - 42.8 °F 100% 30.11 in 0.2 mi Calm Calm - N/A Fog Fog
6:22 AM 42.8 °F - 42.8 °F 100% 30.11 in 0.2 mi Calm Calm - N/A Fog Fog
6:33 AM 42.8 °F - 42.8 °F 100% 30.10 in 0.2 mi Calm Calm - N/A Fog Fog
6:53 AM 42.1 °F - 42.1 °F 100% 30.10 in 0.2 mi Calm Calm - N/A Fog Fog
7:01 AM 42.8 °F - 42.8 °F 100% 30.10 in 0.2 mi Calm Calm - N/A Fog Fog
7:37 AM 42.8 °F - 42.8 °F 100% 30.13 in 0.2 mi Calm Calm - N/A Fog Fog
7:53 AM 42.1 °F - 42.1 °F 100% 30.13 in 0.2 mi Calm Calm - N/A Fog Fog
8:41 AM 42.8 °F - 42.8 °F 100% 30.13 in 0.2 mi Calm Calm - N/A Fog Fog
8:53 AM 43.0 °F - 43.0 °F 100% 30.14 in 0.2 mi Calm Calm - N/A Fog Fog
9:08 AM 44.6 °F 43.1 °F 44.6 °F 100% 30.13 in 0.2 mi NNW 3.5 mph - N/A Fog Fog
9:53 AM 46.0 °F 44.8 °F 46.0 °F 100% 30.12 in 0.2 mi North 3.5 mph - N/A Fog Fog
10:02 AM 46.4 °F 45.2 °F 46.4 °F 100% 30.12 in 0.2 mi North 3.5 mph - N/A Fog Fog
10:53 AM 48.0 °F - 48.0 °F 100% 30.12 in 0.2 mi Calm Calm - N/A Fog Fog
11:19 AM 51.8 °F - 48.2 °F 88% 30.12 in 1.0 mi Calm Calm - N/A   Overcast
11:32 AM 51.8 °F - 50.0 °F 94% 30.12 in 9.0 mi Calm Calm - N/A   Mostly Cloudy
11:43 AM 53.6 °F - 50.0 °F 88% 30.11 in 10.0 mi Calm Calm - N/A   Mostly Cloudy
11:53 AM 55.0 °F - 50.0 °F 83% 30.11 in 10.0 mi Calm Calm - N/A   Mostly Cloudy
12:53 PM 61.0 °F - 50.0 °F 67% 30.08 in 10.0 mi Calm Calm - N/A   Mostly Cloudy
1:53 PM 64.0 °F - 48.9 °F 58% 30.07 in 10.0 mi Calm Calm - N/A   Mostly Cloudy
2:53 PM 66.9 °F - 48.9 °F 52% 30.05 in 10.0 mi Calm Calm - N/A   Scattered Clouds
3:53 PM 66.9 °F - 46.9 °F 49% 30.05 in 10.0 mi Calm Calm - N/A   Scattered Clouds
4:53 PM 62.1 °F - 48.0 °F 60% 30.04 in 10.0 mi Calm Calm - N/A   Scattered Clouds
5:53 PM 52.0 °F - 46.9 °F 83% 30.06 in 10.0 mi Calm Calm - N/A   Scattered Clouds
6:53 PM 51.1 °F - 46.0 °F 83% 30.07 in 10.0 mi South 3.5 mph - N/A   Scattered Clouds
7:53 PM 48.9 °F - 45.0 °F 86% 30.09 in 10.0 mi Calm Calm - N/A   Scattered Clouds
8:53 PM 46.0 °F - 44.1 °F 93% 30.09 in 10.0 mi Calm Calm - N/A   Scattered Clouds
9:53 PM 46.0 °F - 44.1 °F 93% 30.10 in 10.0 mi Calm Calm - N/A   Partly Cloudy
10:53 PM 43.0 °F - 39.9 °F 89% 30.10 in 10.0 mi Calm Calm - N/A   Scattered Clouds
11:53 PM 41.0 °F - 39.0 °F 93% 30.11 in 10.0 mi Calm Calm - N/A   Clear